Regional Weather Roundup
Issued by NWS

Home | Current Version | Previous Version | Graphics & Text | Print | Product List | Glossary On
Versions: 1 2 3 4 5 6 7 8 9 10 11 12 13 14 15 16 17 18 19 20 21 22 23 24 25 26 27 28 29 30 31 32 33 34 35 36 37 38 39 40 41 42 43 44 45 46 47 48 49 50
841
ASUS43 KMKX 272100
RWRWI

WISCONSIN REGIONAL WEATHER ROUNDUP
NATIONAL WEATHER SERVICE MILWAUKEE/SULLIVAN WI
400 PM CDT SAT AUG 27 2016

NOTE: "FAIR" INDICATES FEW OR NO CLOUDS BELOW 12,000 FEET WITH NO
SIGNIFICANT WEATHER AND/OR OBSTRUCTIONS TO VISIBILITY.

WIZ001-002-006>008-014>016-023>028-272200-
NORTHWEST WISCONSIN

CITY           SKY/WX    TMP DP  RH WIND       PRES   REMARKS
SUPERIOR ARPT  PTSUNNY   67  60  79 E8        30.01F
ASHLAND        LGT RAIN  65  62  90 NE7       30.04F
HAYWARD        LGT RAIN  63  60  90 CALM      30.04S
SIREN          CLOUDY    62  60  92 E3        30.02F
CUMBERLAND     CLOUDY    63  59  88 NE3       30.01F
RICE LAKE      CLOUDY    67  59  74 SE9       30.03S
CHETEK         NOT AVBL
LADYSMITH      CLOUDY    70  58  67 E6        30.03F
EAU CLAIRE     CLOUDY    65  63  93 S6        30.01S
MENOMONIE      CLOUDY    66  64  93 SE5       30.02S
NEW RICHMOND   CLOUDY    64  58  80 SE8       30.01F
OSCEOLA        CLOUDY    66  60  82 SE8       30.03F
$$

WIZ003>005-009-010-017-018-272200-
NORTH CENTRAL WISCONSIN

CITY           SKY/WX    TMP DP  RH WIND       PRES   REMARKS
MANITOWISH WTR NOT AVBL
ARBOR VITAE    CLOUDY    69  59  68 S5        30.05F
WOODRUFF       CLOUDY    69  59  68 S5        30.05F
RHINELANDER    CLOUDY    67  59  75 SE5       30.06S
EAGLE RIVER    CLOUDY    66  55  66 CALM      30.06S
LAND O LAKES   CLOUDY    69  56  63 S6        30.07S
PHILLIPS       CLOUDY    67  58  73 SE5       30.03F
TOMAHAWK       CLOUDY    66  57  72 CALM      30.05F
MEDFORD        CLOUDY    64  60  85 SE7       30.05S
MERRILL        CLOUDY    67  60  80 SE6       30.05F
$$

WIZ029-030-035-036-043>047-272200-
CENTRAL WISCONSIN

CITY           SKY/WX    TMP DP  RH WIND       PRES   REMARKS
WAUSAU         CLOUDY    64  59  83 E8        30.03F
MOSINEE        CLOUDY    64  61  88 E6        30.05F
MARSHFIELD     CLOUDY    66  60  81 E6        30.03F
STEVENS POINT  CLOUDY    63  60  90 E7        30.05F
WAUPACA        CLOUDY    67  64  87 E6        30.04S
WAUTOMA        CLOUDY    64  63  96 E6        30.04S FOG
WISC RAPIDS    CLOUDY    66  63  90 E8        30.04F
CAMP DOUGLAS   CLOUDY    64  64 100 E5        30.03S
$$

WIZ011>013-019>022-031-037>040-048>050-272200-
NORTHEAST WISCONSIN

CITY           SKY/WX    TMP DP  RH WIND       PRES   REMARKS
ANTIGO         CLOUDY    64  60  88 SE6       30.06F
SHAWANO        CLOUDY    68  62  82 E6        30.05S
OCONTO         NOT AVBL
STURGEON BAY   CLOUDY    65  61  87 NE5       30.05F
GREEN BAY      CLOUDY    66  64  93 NE7       30.03F
MANITOWOC      NOT AVBL
APPLETON       CLOUDY    64  64 100 NE5       30.02S FOG
CLINTONVILLE   CLOUDY    64  61  88 SE6       30.04F
OSHKOSH        CLOUDY    66  64  93 NE6       30.02S
$$

WIZ032>034-041-042-053>061-272200-
SOUTHWEST WISCONSIN

CITY           SKY/WX    TMP DP  RH WIND       PRES   REMARKS
LA CROSSE      CLOUDY    71  65  81 S3        30.00S
SPARTA         CLOUDY    67  63  87 E6        30.03S
VIROQUA        CLOUDY    68  65  90 S3        30.03S
BOSCOBEL       CLOUDY    71  66  84 VRB3      30.01F
PRAIRIE DU CHI CLOUDY    72  65  80 CALM      30.01S
PLATTEVILLE    PTSUNNY   75  72  88 SW6       30.02S
$$

WIZ056-057-062-063-064-067-068-272200-
SOUTH CENTRAL WISCONSIN

CITY           SKY/WX    TMP DP  RH WIND       PRES   REMARKS
REEDSBURG      NOT AVBL
BARABOO/DELLS  CLOUDY    65  62  92 CALM      30.03S FOG
LONE ROCK      NOT AVBL
MINERAL POINT  CLOUDY    73  70  88 SW5       30.02S
MADISON        CLOUDY    74  68  81 CALM      30.00S
MIDDLETON      CLOUDY    73  70  88 CALM      30.02R
WATERTOWN      CLOUDY    74  71  88 CALM      30.00F
MONROE         PTSUNNY   79  68  69 SW10G16   30.00S HX  81
JANESVILLE     PTSUNNY   81  70  69 SW8       29.99S HX  84
$$

WIZ051-052-058>065-066-070>072-272200-
SOUTHEAST WISCONSIN

CITY           SKY/WX    TMP DP  RH WIND       PRES   REMARKS
MILWAUKEE      CLOUDY    77  70  79 NE8       29.99F
WAUKESHA       PTSUNNY   72  66  83 CALM      30.01F
MILWAUKEE/TIMM CLOUDY    75  66  73 E5        30.01F
RACINE         PTSUNNY   77  70  79 SE7       30.01F
BURLINGTON     CLOUDY    81  68  66 S6        29.99F HX  83
KENOSHA        CLOUDY    80  70  71 SW8       30.01F HX  83
FOND DU LAC    CLOUDY    70  65  84 N6        30.01F
SHEBOYGAN      LGT RAIN  70  66  87 CALM      30.01F
WEST BEND      CLOUDY    72  66  83 CALM      30.02F
JUNEAU         CLOUDY    72  67  85 SE3       30.02F
$$

LSZ147-162-272200-
LAKE SUPERIOR

STATION/POSITION TIME  TEMP    WIND        PRES    WAVE
                       AIR SEA DIR/SP/G            HT/PER
                 (UTC) (F)     (DEG/KT/KT) (MB)    (FT/S)
W MID LAKE BUOY  1950   65 67   80/  8/ 10 1017.4F   1
DEVILS ISLAND    2000   65      50/  7/  8 1017.5F
PORT WING        2040   68      60/  3/  5 1016.9F
SAXON HARBOR     2040   67      80/  3/  5 1016.9F
$$

LMZ867-665-643>646-272200-
LAKE MICHIGAN

STATION/POSITION TIME  TEMP    WIND        PRES    WAVE
                       AIR SEA DIR/SP/G            HT/PER
                 (UTC) (F)     (DEG/KT/KT) (MB)    (FT/S)
CHAMBERS ISLAND  2000   64      50/  4/  7 1017.9F
N MID LAKE BUOY  1950   65 69  110/ 10/ 12 1017.4F   1/ 3
NORTHPORT PIER   2000   64      80/  5/  7 1017.9F
SISTER BAY       2007   66     120/  6/  9   N/A
KEWAUNEE LAKESHO 2000   62      10/  3/  6 1016.8F
SHEBOYGAN LAKESH 2000   62     360/  9/  9 1016.3F
PORT WASHINGTON  2000   66      40/  6/  8 1017.3F
ATWATER BUOY     2000   64      10/  4/  6   N/A
MILWAUKEE LAKESH 2010   67      30/  4/  4   N/A
S MID LAKE BUOY  1950   74 75  170/ 12/ 14 1016.3F   3/ 4
KENOSHA   LAKESH 2000   70     170/ 10/ 12 1015.9F
$$

TC  - TEMPERATURE IN CELSIUS
VSB - VISIBILITY IN STATUTE MILES
WCI - WIND CHILL INDEX
HX  - HEAT INDEX





USA.gov is the U.S. government's official web portal to all federal, state and local government web resources and services.